Fairfield, CA

5:13 AM PST on January 22, 2018 (GMT -0800)
Travis Air Force Base

Weather History for KSUU - September, 2013

Change the Weather History Date:

Thursday, September 12, 2013

  Actual Average Record
Temperature  
Mean Temperature 72 °F -  
Max Temperature 84 °F 84 °F 100 °F (2003)
Min Temperature 60 °F 55 °F 51 °F (2005)
Cooling Degree Days 7    
Growing Degree Days 22 (Base 50)    
Moisture  
Dew Point 59 °F    
Average Humidity 71    
Maximum Humidity 94    
Minimum Humidity 44    
Precipitation  
Precipitation 0.00 in - - ()
Sea Level Pressure  
Sea Level Pressure 29.88 in    
Wind  
Wind Speed 17 mph (SW)    
Max Wind Speed 32 mph    
Max Gust Speed 36 mph    
Visibility 10 miles    
Events      
Averages and records for this station are not official NWS values.
T = Trace of Precipitation, MM = Missing Value Source: NWS Daily Summary

Daily Weather History Graph

Daily Weather History Graph

Search for Another Location

Airport or City:

Trip Planner

Search our weather history database for the weather conditions in past years. The results will help you decide how hot, cold, wet, or windy it might be!

Date:

Astronomy

Sep. 12, 2013 Rise Set
Actual Time 6:47 AM PDT 7:19 PM PDT
Civil Twilight 6:20 AM PDT 7:46 PM PDT
Nautical Twilight 5:49 AM PDT 8:17 PM PDT
Astronomical Twilight 5:17 AM PDT 8:49 PM PDT
Moon 2:14 PM PDT (9/12) No Moon Set
Length of Visible Light 13h 25m
Length of Day
12h 32m
Waxing Crescent, 51% of the Moon is Illuminated
Sep 12
Waxing Crescent
Sep 19
Full
Sep 26
Last Quarter
Oct 4
New
Oct 11
First Quarter

Hourly Weather History & Observations

Time (PDT) Temp. Heat Index Dew Point Humidity Pressure Visibility Wind Dir Wind Speed Gust Speed Precip Events Conditions
12:56 AM 62.6 °F - 59.0 °F 88% 29.90 in 10.0 mi SW 20.7 mph 27.6 mph N/A   Clear
1:56 AM 62.6 °F - 59.0 °F 88% 29.91 in 10.0 mi SW 17.3 mph - N/A   Clear
2:56 AM 62.6 °F - 59.0 °F 88% 29.90 in 10.0 mi SW 17.3 mph - N/A   Clear
3:56 AM 60.8 °F - 59.0 °F 94% 29.90 in 10.0 mi SW 17.3 mph - N/A   Clear
4:56 AM 62.6 °F - 59.0 °F 88% 29.91 in 10.0 mi WSW 16.1 mph - N/A   Clear
5:56 AM 60.8 °F - 59.0 °F 94% 29.91 in 10.0 mi WSW 15.0 mph - N/A   Clear
6:56 AM 60.8 °F - 59.0 °F 94% 29.92 in 10.0 mi SW 11.5 mph - N/A   Clear
7:56 AM 62.6 °F - 59.0 °F 88% 29.95 in 10.0 mi WSW 10.4 mph - N/A   Clear
8:56 AM 66.2 °F - 59.0 °F 78% 29.95 in 10.0 mi WSW 5.8 mph - N/A   Clear
9:56 AM 69.8 °F - 59.0 °F 68% 29.95 in 10.0 mi SW 10.4 mph - N/A   Clear
10:56 AM 71.6 °F - 59.0 °F 64% 29.95 in 10.0 mi SW 12.7 mph - N/A   Clear
11:56 AM 73.4 °F - 59.0 °F 61% 29.94 in 10.0 mi SW 12.7 mph - N/A   Clear
12:55 PM 76.6 °F - 59.9 °F 56% 29.92 in 10.0 mi WSW 13.8 mph - N/A   Clear
1:55 PM 77.0 °F - 59.7 °F 55% 29.88 in 10.0 mi SW 9.2 mph - N/A   Clear
2:55 PM 82.6 °F 82.9 °F 60.4 °F 47% 29.86 in 10.0 mi SW 12.7 mph - N/A   Clear
3:55 PM 84.7 °F 84.8 °F 60.4 °F 44% 29.84 in 10.0 mi SW 12.7 mph - N/A   Clear
4:55 PM 83.5 °F 83.7 °F 61.0 °F 46% 29.82 in 10.0 mi SW 16.1 mph - N/A   Clear
4:58 PM 83.5 °F 83.7 °F 61.0 °F 46% 29.82 in 10.0 mi SW 16.1 mph - N/A   Clear
5:55 PM 79.0 °F - 58.8 °F 50% 29.81 in 10.0 mi SW 21.9 mph 27.6 mph N/A   Clear
6:55 PM 73.0 °F - 57.7 °F 59% 29.81 in 10.0 mi SW 21.9 mph 27.6 mph N/A   Clear
6:58 PM 73.0 °F - 57.7 °F 59% 29.81 in 10.0 mi SW 21.9 mph 27.6 mph N/A   Clear
7:55 PM 67.3 °F - 57.7 °F 71% 29.82 in 10.0 mi SW 26.5 mph - N/A   Clear
8:56 PM 64.4 °F - 57.2 °F 77% 29.83 in 10.0 mi SW 32.2 mph 35.7 mph N/A   Clear
9:56 PM 62.6 °F - 57.2 °F 82% 29.84 in 10.0 mi SW 26.5 mph - N/A   Clear
10:56 PM 62.6 °F - 57.2 °F 82% 29.83 in 10.0 mi SW 29.9 mph 35.7 mph N/A   Clear
11:56 PM 62.6 °F - 59.0 °F 88% 29.83 in 10.0 mi SW 25.3 mph 33.4 mph N/A   Clear